Weather History for Findlay, OH

Change the Weather History Date:

Tuesday, April 23, 2013

  Actual Average Record
Temperature  
Mean Temperature 59 °F -  
Max Temperature 72 °F 62 °F 86 °F (1960)
Min Temperature 46 °F 41 °F 26 °F (1986)
Degree Days  
Heating Degree Days 6    
Growing Degree Days 9 (Base 50)    
Moisture  
Dew Point 43 °F    
Average Humidity 59    
Maximum Humidity 93    
Minimum Humidity 34    
Precipitation  
Precipitation 0.08 in - - ()
Sea Level Pressure  
Sea Level Pressure 30.00 in    
Wind  
Wind Speed 11 mph (SSE)    
Max Wind Speed 24 mph    
Max Gust Speed 29 mph    
Visibility 10 miles    
Events Rain    
Averages and records for this station are not official NWS values.
T = Trace of Precipitation, MM = Missing Value Source: NWS Daily Summary

Daily Weather History Graph

Daily Weather History Graph

Search for Another Location

Airport:

Trip Planner

Search our weather history database for the weather conditions in past years. The results will help you decide how hot, cold, wet, or windy it might be!

Date:

Astronomy

Apr. 23, 2013 Rise Set
Actual Time 6:43 AM EDT 8:23 PM EDT
Civil Twilight 6:14 AM EDT 8:52 PM EDT
Nautical Twilight 5:38 AM EDT 9:27 PM EDT
Astronomical Twilight 5:01 AM EDT 10:05 PM EDT
Moon 6:16 PM EDT (4/23) 5:11 AM EDT (4/23)
Length of Visible Light 14h 38m
Length of Day
13h 40m
Waxing Gibbous, 94% of the Moon is Illuminated
Apr 23
Waxing Gibbous
Apr 25
Full
May 2
Last Quarter
May 9
New
May 18
First Quarter

Hourly Weather History & Observations

Time (EDT) Temp. Dew Point Humidity Pressure Visibility Wind Dir Wind Speed Gust Speed Precip Events Conditions
12:53 AM 46.9 °F 37.9 °F 71% 30.14 in 10.0 mi ESE 5.8 mph - N/A   Clear
1:53 AM 50.0 °F 37.9 °F 63% 30.13 in 10.0 mi SE 10.4 mph - N/A   Clear
2:53 AM 50.0 °F 36.0 °F 59% 30.12 in 10.0 mi SE 9.2 mph - N/A   Clear
3:53 AM 48.9 °F 34.0 °F 56% 30.11 in 10.0 mi SE 9.2 mph - N/A   Clear
4:53 AM 46.9 °F 33.1 °F 59% 30.10 in 10.0 mi SSE 8.1 mph - N/A   Clear
6:53 AM 46.9 °F 32.0 °F 56% 30.07 in 10.0 mi North - - N/A   Clear
7:53 AM 48.9 °F 33.1 °F 54% 30.09 in 10.0 mi SSE 11.5 mph - N/A   Partly Cloudy
8:53 AM 53.1 °F 35.1 °F 50% 30.09 in 10.0 mi SSE 12.7 mph - N/A   Clear
9:53 AM 57.9 °F 37.9 °F 47% 30.08 in 10.0 mi SSE 15.0 mph - N/A   Clear
10:53 AM 62.1 °F 39.9 °F 44% 30.06 in 10.0 mi SSE 11.5 mph - N/A   Clear
11:53 AM 66.0 °F 42.1 °F 42% 30.05 in 10.0 mi SSE 13.8 mph - N/A   Clear
12:53 PM 68.0 °F 43.0 °F 40% 30.02 in - South 13.8 mph 20.7 mph N/A   Mostly Cloudy
1:53 PM 72.0 °F 42.1 °F 34% 29.98 in 10.0 mi SSW 20.7 mph - N/A   Partly Cloudy
2:53 PM 71.1 °F 43.0 °F 36% 29.96 in 10.0 mi SSW 24.2 mph 28.8 mph N/A   Partly Cloudy
3:53 PM 69.1 °F 45.0 °F 42% 29.94 in 10.0 mi SSW 21.9 mph 28.8 mph N/A   Partly Cloudy
4:53 PM 69.1 °F 46.9 °F 45% 29.91 in 10.0 mi SSW 20.7 mph 25.3 mph N/A   Mostly Cloudy
5:53 PM 66.9 °F 46.9 °F 49% 29.90 in 10.0 mi SSW 16.1 mph - N/A   Overcast
6:53 PM 60.1 °F 52.0 °F 75% 29.92 in 4.0 mi SW 17.3 mph 26.5 mph 0.02 in Rain Light Rain
7:53 PM 57.9 °F 54.0 °F 87% 29.88 in 10.0 mi SSW 4.6 mph - 0.01 in   Overcast
8:53 PM 57.9 °F 55.0 °F 90% 29.87 in 10.0 mi SE 3.5 mph - 0.00 in   Overcast
9:53 PM 57.0 °F 55.0 °F 93% 29.86 in 7.0 mi East 5.8 mph - 0.01 in Rain Light Rain
10:53 PM 59.0 °F 53.1 °F 81% 29.83 in 10.0 mi South 10.4 mph - 0.00 in Rain Light Rain
11:53 PM 59.0 °F 52.0 °F 78% 29.81 in 10.0 mi South 10.4 mph - 0.04 in Rain Light Rain